Dauntless Aviation
Airports North America United States Colorado
98CO

NCMC HELIPORT

GREELEY, CO, USA

Airport Info
Suggest Updated Information for this Airport

Location

Latitude / Longitude: 40°24'53"N / 104°42'28"W
  40°24.9'N / 104°42.4667'W
  40.4150 / -104.7078
Elevation: 4882 ft. (estimated)
Variation: 12E (1985)
From city: 00 miles N of GREELEY, CO

Operations

Facility use: Private
Sectional chart: DENVER
Control tower: no
Boundary ARTCC: DENVER
FSS: DENVER [1-800-WX-BRIEF]
Segmented circle: no

Communications

Nearby radio navigation aids

VOR radial/distance VOR name Freq Var
GLL 233oT/8.9 GILL VORTAC 114.20 13E
DVV 353oT/31.5 MILE HIGH VORTAC 114.70 11E
BJC 33oT/36.1 JEFFCO VOR/DME 115.40 11E
DEN 357oT/36.2 DENVER VOR/DME 117.90 11E
 
NDB name Hdg/Dist Freq Var ID

Services

Runway Information

Helipad H1

Dimensions: 40 x 40 ft.
Surface: PORTLAND CEMENT CONCRETE,NO SPECIAL SURFACE TREATMENT
 

Additional Remarks

Instrument Procedures

No published instrument procedures available
Topographic chart at:
Satellite photo at:
Airport distance calculator
From:
Weather Reports

METAR

KGXY
4.2nm NE
KGXY 092256Z AUTO 18005KT 10SM CLR M01/M06 A3012 RMK AO2 SLP262 T10061061 FZRANO
KFNL
14.3nm W
KFNL 092255Z AUTO 07007KT 8SM CLR M01/M07 A3010 RMK AO1
KLMO
25.8nm SW
KLMO 092254Z AUTO 08007KT 10SM CLR 00/M05 A3011 RMK AO2 T00001055
KEIK
28.6nm S
KEIK 092254Z AUTO 34004KT 7SM CLR 00/M04 A3009 RMK AO2 T10041041
KBDU
33.3nm SW
KBDU 092255Z AUTO 35007KT 10SM BKN090 M01/M06 A3007 RMK AO2
KDEN
35.0nm SE
KDEN 092253Z 08008KT 9SM FEW060 SCT220 03/M03 A3008 RMK AO2 SLP224 T00331028

TAF

KDEN
35.0nm SE
KDEN 092057Z 0921/1024 32011KT P6SM FEW090 SCT220 FM092200 06007KT P6SM FEW090 SCT220 FM100000 12008KT P6SM SCT220 FM100400 20009KT P6SM FEW120 SCT220 FM101400 23006KT P6SM FEW120 SCT220 FM101900 03005KT P6SM FEW120 SCT220
KBJC
35.3nm S
KBJC 092103Z 0921/1018 33008KT P6SM FEW060 SCT220 FM100100 25005KT P6SM FEW080 SCT220 FM100700 31005KT P6SM FEW120 SCT220 FM101400 VRB05KT P6SM FEW120 SCT220
Safelog

 

Dauntless Aviation

© 2007-2016 Dauntless Aviation, all rights reserved
Information provided via PilotNav comes from a variety of official and unofficial data sources. As errors are possible, do not use PilotNav for primary flight planning purposes. Verify any information that you receive via PilotNav with current and canonical charts and other official documents. The material in this database is subject to database copyrights held by Dauntless Aviation and may not be copied without the express permission of Dauntless Aviation - licenses for use of part of all of this data are available for purchase; enquire via the Dauntless Aviation helpdesk. A number of mechanisms and markers exist in the database to protect against and identify infringement / copyright. Automated queries against this website are stictly prohibited, and all activity is logged and analyzed.